Location: Buisson
(44.2787°N, 4.9969°E)
Time: 06:25:01
(UTC+00:00)

CZ-2C R/B - Pass Details

Date: 18 April 2021
Orbit: 668 x 784 km, 98.2° (Epoch: 05 May)

Event Time Altitude Azimuth Distance (km) Brightness Sun altitude
Rises 03:34:29 0° 13° (NNE) 3,072 6.3 -13.5°
Reaches altitude 10° 03:36:42 10° 13° (NNE) 2,166 5.5 -13.1°
Maximum altitude 03:41:28 89° 283° (WNW) 719 2.3 -12.4°
Drops below altitude 10° 03:46:21 10° 195° (SSW) 2,223 4.5 -11.6°
Enters shadow 03:47:40 - 195° (SSW) 2,758 5.0 -11.4°
